www.pogodaiklimat.ru
ПОГОДА в Талсе
Время
(UTC), дата
09:53 06.12
10:53 06.12
11:53 06.12
12:53 06.12
13:53 06.12
14:53 06.12
15:53 06.12
16:53 06.12
17:53 06.12
18:53 06.12
19:53 06.12
20:53 06.12
21:53 06.12
22:53 06.12
23:53 06.12
00:53 06.12
01:53 06.12
02:53 06.12
03:53 06.12
04:53 06.12
05:53 07.12
06:53 07.12
07:53 07.12
08:53 07.12
09:53 07.12
10:53 07.12
11:53 07.12
12:53 07.12
13:53 07.12
14:53 07.12
15:53 07.12
16:53 07.12
17:53 07.12
18:53 07.12
19:53 07.12
20:53 07.12
21:53 07.12
22:53 07.12
23:53 07.12
00:53 07.12
01:53 07.12
02:53 07.12
03:53 07.12
04:53 07.12
05:53 08.12
06:53 08.12
07:53 08.12
08:53 08.12
Ветер
(напр.,м/с)
Видим. Явления Облачность Т
(С)
Тd
(С)
f
(%)
Тe
(С)
Тes
(С)
Комфортность P
(гПа)
Po
(гПа)
Тmin
(С)
Tmax
(С)
R
(мм)
R24
(мм)
S
(см)
С 4
{10}
16 км ясно +11.1 +3.3 59 +9 +9 1019.4 995.3
С 5
{13}
16 км ясно +9.4 +3.3 66 +6 +6 1020.5 996.9 +9.4 +14.4
С 6
{11}
16 км ясно +7.8 +2.2 68 +3 +3 1022.1 998.3
С 7
{11}
16 км ясно +6.7 +1.1 67 +2 +2 1023.9 999.9
С 6
{12}
16 км ясно +6.7 +0.6 65 +2 +2 1025.4 1001.2
С 8
{11}
16 км ясно +7.2 +0.6 63 +2 +3 1027.1 1003.2
С 6
{9}
16 км ясно +8.9 +1.1 58 +5 +6 1027.4 1003.6
С 5
{10}
16 км ясно +9.4 +1.1 56 +6 +8 1027.4 1003.6 +6.1 +10.0
С 4
{10}
16 км ясно +10.6 +1.1 52 +8 +12 1026.6 1002.6
С 5
{8}
16 км ясно +11.1 +0.6 48 +8 +10 1026.4 1002.6
С 4 16 км ясно +11.7 +1.1 48 +10 +13 1026.3 1002.6
С 4
{8}
16 км ясно +10.6 +0.6 50 +8 +10 1027.1 1003.2
С 4 16 км ясно +9.4 0.0 52 +7 +8 1027.2 1003.2
С 3 16 км ясно +8.3 0.0 56 +6 +6 1027.6 1003.6 +8.3 +11.7
СВ 3 16 км ясно +7.2 -0.6 58 +4 +4 1028.3 1004.2
С 3 16 км ясно +6.1 -1.1 60 +3 +3 1029.2 1004.9
С 2 16 км ясно +5.0 -1.1 65 +2 +2 1029.3 1005.2
0 16 км ясно +3.9 -1.7 67 +3 +3 1029.6 1005.2
С 1 16 км ясно +2.8 -1.7 72 +1 +1 1029.5 1005.2
0 16 км ясно +1.1 -1.7 82 0 0 1029.5 1005.2 +1.1 +8.3
0 16 км ясно +1.1 -1.7 82 0 0 1029.0 1004.9
С 1 16 км ясно +2.2 -1.7 75 -0 -0 1029.0 1004.9
С 1 16 км ясно +0.6 -2.2 81 -2 -2 1028.9 1004.9
0 16 км ясно 0.0 -2.2 85 -1 -1 1028.3 1003.9
0 16 км ясно -1.1 -2.8 88 -2 -2 1028.2 1003.9
0 16 км ясно -1.7 -3.3 89 -3 -3 1028.6 1004.2 -1.7 +2.2
0 13 км ясно -1.7 -3.3 89 -3 -3 1028.4 1004.2
0 8 км дымка ясно -1.1 -2.8 88 -2 -2 1028.7 1004.2
0 16 км ясно +2.8 -1.1 75 +2 +2 1028.1 1003.9
0 16 км ясно +5.0 -0.6 67 +4 +6 1028.7 1004.6
0 16 км ясно +7.2 0.0 60 +7 +11 1028.4 1004.2
0 16 км ясно +9.4 +0.6 54 +9 +16 1027.2 1002.9 -2.2 +9.4
нст 1 16 км ясно +11.7 0.0 44 +11 +18 1025.5 1001.6
нст 3 16 км ясно +12.8 -1.7 37 +12 +17 1024.0 999.9
Ю 2 16 км ясно +14.4 -5.6 25 +14 +18 1022.8 998.9
ЮВ 3 16 км ясно +13.9 -1.7 34 +13 +15 1022.2 998.3
Ю 3 16 км ясно +12.8 -3.3 32 +12 +13 1022.0 997.9
ЮВ 2 16 км ясно +11.1 +0.6 48 +10 +10 1021.7 997.6 +9.4 +15.0
Ю 3 16 км ясно +10.0 +0.6 52 +8 +8 1021.2 997.3
Ю 2 16 км ясно +8.9 +1.7 61 +7 +7 1021.0 996.9
0 16 км ясно +5.6 +1.1 73 +5 +5 1020.4 996.3
Ю 3 16 км ясно +8.3 +2.8 68 +6 +6 1019.4 995.6
Ю 3 16 км ясно +7.8 +3.3 73 +5 +5 1019.2 995.3
Ю 3 16 км ясно +7.2 +3.9 80 +4 +4 1018.5 994.6 +5.6 +11.1
Ю 3 16 км ясно +7.2 +4.4 82 +4 +4 1017.6 994.0
Ю 2 16 км ясно +6.7 +4.4 85 +4 +4 1016.7 993.0
Ю 3 16 км ясно +7.2 +5.0 86 +4 +4 1015.8 992.3
Ю 3 16 км ясно +7.8 +5.6 86 +5 +5 1015.4 991.6
Местоположение метеостанции Jones Jr. Airport: широта 36.0425 долгота -95.9894 высота над уровнем моря 194 м.
В архиве по умолчанию представлена погода в Талсе за последние 1-2 суток. Обновление информации о фактической погоде в базе происходит ежечасно! Архивные данные за месяц целиком и за предыдущие месяцы Вы можете получить, выбрав интересующий диапазон дат из раскрывающегося списка и нажав кнопку "Ввод!".
Внимание! Архив погоды МЕТАР в базе сайта по станциям, не включенным в климатический монитор, хранится не более 60 дней. Нет смысла пытаться выбрать более раннюю дату.
*Определитесь, кто Вы:
Внимание! Время в таблицах - всемирное. Для получения местного времени необходимо прибавить поправку, которая равна ч.
Смотрите также архив погоды в соседних городах и на ближайших метеорологических станциях:
Партнеры нашего сайта:      
Пояснения к столбцам:
  • Ветер - указаны скорость ветра в м/с - средняя за 10 мин, порывы в срок и между сроками (в фигурных скобках) и направление, откуда дует ветер: С - северный,
  • СВ - северо-восточный, В - восточный, ЮВ - юго-восточный, Ю - южный, ЮЗ - юго-западный, З - западный, СЗ - северо-западный.
  • Видимость - горизонтальная дальность видимости в метрах или километрах. При видимости от 1 до 10 км при отсутствии осадков обычно наблюдается дымка, при ухудшении видимости до 1 км и менее - туман. В сухую погоду видимость может ухудшаться дымом, пылью или мглою.
  • Явления - указаны атмосферные явления, наблюдавшиеся в срок или в последний час перед сроком; фигурными скобками обозначены явления, наблюдавшиеся между сроками (за 1-3 часа до срока); квадратными скобками обозначены град или гололедные отложения с указанием их диаметра в мм.
  • Облачность - указаны через наклонную черту общая и нижняя облачность в баллах и высота нижней границы облаков в метрах; квадратными скобками обозначены формы облаков: Ci - перистые, Cs - перисто-слоистые, Cc - перисто-кучевые, Ac - высококучевые, As - высокослоистые, Sc - слоисто-кучевые, Ns - слоисто-дождевые, Cu - кучевые, Cb - кучево-дождевые. Подробнее классификацию облаков см. в Атласе облаков (PDF).
  • T - Температура воздуха - температура, измеренная на высоте 2 м над землей.
  • Td - Температура точки росы - температура, при понижении до которой содержащийся в воздухе водяной пар достигнет насыщения.
  • f - Относительная влажность воздуха - влажноcть воздуха, измеренная на высоте 2 м над землей.
  • Te - Эффективная температура - температура, которую ощущает одетый по сезону человек в тени. Характеристика душности погоды. При расчете учитывается влияние влажности воздуха и скорости ветра на теплоощущения человека.
  • Tes - Эффективная температура на солнце - температура, которую ощущает человек, с поправкой на солнечный нагрев. Характеристика знойности погоды. Зависит от высоты солнца над горизонтом, облачности и скорости ветра. Ночью, в пасмурную погоду, а также при ветре 12 м/с и более поправка равна нулю.
  • P - Атмосферное давление - приведенное к уровню моря атмосферное давление.
  • Po - Атмосферное давление - измеренное на уровне метеостанции атмосферное давление.
  • Tmin - Минимальная температура - минимум температуры воздуха на высоте 2 м над землей.
  • Tmax - Максимальная температура - максимум температуры воздуха на высоте 2 м над землей.
  • R - Количество осадков - Количество выпавших осадков за период времени, мм. При наведении курсора мыши на число - период времени, за который выпало указанное количество осадков.
  • R24 - Количество осадков - Количество выпавших осадков за 24 часа, мм.
  • S - Снежный покров - Высота снежного покрова, см. При наведении курсора мыши на число - состояние снежного покрова и степень покрытия местности в баллах.